Location: Saint-Maurice-d�Ard�che
(44.5216°N, 4.4002°E)
Time: 03:42:29
(UTC+00:00)

USA 245 - Pass Details

Date: 30 March 2020
Orbit: 269 x 1016 km, 97.9° (Epoch: 01 June)

Event Time Altitude Azimuth Distance (km) Brightness Sun altitude
Exits shadow 20:07:45 39° 83° (E) 1,175 4.5 -21.1°
Maximum altitude 20:08:21 40° 66° (ENE) 1,166 4.6 -21.2°
Drops below altitude 10° 20:13:42 10° 359° (N) 2,592 7.1 -22.0°
Sets 20:16:28 0° 353° (N) 3,626 8.0 -22.4°
